Location: Vinland
(47.7731°N, 122.6974°W)
Time: 02:31:15
(UTC+00:00)

Transit 4A - Pass Details

Date: 02 April 2023
Orbit: 864 x 979 km, 66.8° (Epoch: 29 May)

Event Time Altitude Azimuth Distance (km) Brightness Sun altitude
Exits shadow 12:11:48 - 187° (S) 2,962 10.2 -16.1°
Reaches altitude 10° 12:13:04 10° 183° (S) 2,504 9.9 -15.9°
Maximum altitude 12:18:29 43° 114° (ESE) 1,218 8.8 -15.1°
Drops below altitude 10° 12:24:01 10° 45° (NE) 2,568 11.4 -14.3°
Sets 12:26:40 0° 39° (NE) 3,529 12.1 -13.9°
